SL-16 DEB, 24303

Orbit data source: Space-Track

SL-16 DEB, 24303 is space debris in LEO originally from a launch on Wed, 04 Sep 1996 UTC launched from the Tyuratam Missile And Space Complex (TTMTR). Debris objects in space refer to the collection of defunct objects orbiting the Earth. Examples of debris include non-operational satellites, rocket bodies, and fragments generated from explosions, collisions, or faulty payload assembly.

Loading next visibility...
Identifier
24303, 1996-051G
Orbit
LEO
Country
Flag of CISCIS
Related business
Manufacturer
Unknown
Mission
Spacecraft
Bus & Motor
Unknown
Mass
Unknown
Launch date (UTC)
1996-09-04 (29 years ago)
Launch vehicle
Unknown
Launch site
Tyuratam Missile And Space Complex (TTMTR)
Object type
Payload
Rocket body
Debris
Shape & HBR
Unknown shape, 0.5 m
Radar Cross Section
Medium (>0.1 m² and <1 m²)

Expand to show TLE details & history
Last TLE update: 18 hours ago

TLE from 18 hours ago
0 SL-16 DEB
1 24303U 96051G   25308.94837803  .00000297  00000-0  19609-3 0  9999
2 24303  71.1041 134.6754 0071415 333.9168 178.1601 14.08383361499091
Epoch: 2025-11-04T22:45Z
TLE epoch observation values (Epoch: 2025-11-04T22:45:39.861Z)
Latitude
26.31795°
Longitude
-80.86486°
Altitude
919.302 km
Speed
7.368 km/s
True Right ascension
20h 19m 55s
True Declination
26° 11' 04"
Sunlit
Object was in daylight at epoch
Visualization orbit readout
Latitude
Unknown
Longitude
Unknown
Altitude
Unknown
Speed
Unknown
Apparent Right ascension
Unknown
Apparent Declination
Unknown
Sunlit
N/A
Visualization observer readout
Local Sidereal Time
12:48:11
Azimuth
Unknown
Elevation
Unknown
Doppler factor
Unknown
Orbital elements
Apogee altitude
914.542 km
Perigee altitude
811.119 km
Semi-major axis
7,240.967 km
Eccentricity
0.00714
Inclination
71.1041°
RAAN
134.6754°
Arg. of periapsis
333.9168°
True anomaly
178.18614°
Mean anomaly
178.1601°
Eccentric anomaly
178.17314°
Mean motion
3.52248 °/min
Orbital period
102.2 mins
BSTAR
0.00019609
Loading maneuver chart data...
Computing Atmospheric mass density...
Loading historical data...
Loading historical data...
Loading historical data...
Loading historical data...
Loading historical data...
Loading historical data...
Loading historical data...

Documentation

Showing up to 5 results
|